Temp
-5 -6 -6 -6 -6 -6 -6 -6 -6 -6 -7 -7 -7 -7 -7 -7 -7 -6 -6 -6 -6 -6 -6 -6 -6 -6 -6 -6 -6 -6 -6 -6 -6 -6 -6 -6 -6 -7 -7 -7 -7 -7 -7 -7 -6 -6 -6 -5 -5 -5 -5 -5 -4 -4 -4 -3 -3 -3 -3 -3 -2 -2 -2 -1 -1 -1 -1 -1 -1
-6 -6 -6 -6 -6 -6 -7 -7 -7 -7 -7 -7 -7 -7 -7 -7 -7 -7 -6 -6 -6 -6 -6 -6 -6 -6 -6 -6 -6 -6 -6 -6 -6 -6 -6 -7 -7 -7 -7 -7 -7 -7 -7 -7 -6 -6 -6 -6 -5 -5 -5 -5 -4 -4 -4 -4 -3 -3 -3 -3 -2 -2 -2 -2 -2 -2 -2 -2 -2
-6 -6 -6 -6 -6 -7 -7 -7 -7 -7 -7 -8 -7 -7 -7 -7 -7 -7 -7 -7 -7 -7 -7 -7 -7 -7 -6 -6 -6 -6 -6 -6 -6 -7 -7 -7 -7 -7 -7 -7 -7 -7 -7 -7 -6 -6 -6 -6 -5 -5 -5 -5 -5 -4 -4 -4 -4 -3 -3 -3 -3 -2 -2 -2 -2 -2 -2 -2 -2
-6 -6 -6 -6 -7 -7 -7 -7 -7 -8 -8 -8 -8 -8 -7 -7 -7 -7 -7 -7 -7 -7 -7 -7 -7 -7 -7 -7 -7 -7 -7 -7 -7 -7 -7 -7 -7 -7 -7 -7 -7 -7 -7 -7 -6 -6 -6 -6 -6 -5 -5 -5 -5 -5 -4 -4 -4 -3 -3 -3 -3 -3 -3 -3 -3 -2 -2 -2 -2
-6 -6 -7 -7 -7 -7 -7 -7 -8 -8 -8 -8 -8 -8 -8 -7 -7 -7 -7 -7 -7 -7 -7 -7 -7 -7 -7 -7 -7 -7 -7 -7 -7 -7 -7 -8 -8 -8 -8 -7 -7 -7 -7 -7 -6 -6 -6 -6 -6 -6 -5 -5 -5 -5 -4 -4 -4 -3 -3 -3 -3 -3 -3 -3 -3 -3 -2 -2 -2
-6 -7 -7 -7 -7 -7 -7 -8 -8 -8 -8 -8 -8 -8 -8 -8 -7 -7 -7 -7 -7 -7 -7 -7 -7 -7 -7 -7 -7 -7 -7 -7 -7 -8 -8 -8 -8 -8 -8 -7 -7 -7 -7 -7 -7 -6 -6 -6 -6 -6 -6 -5 -5 -5 -4 -4 -4 -4 -4 -4 -4 -3 -3 -3 -3 -3 -2 -2 -1
-7 -7 -7 -7 -7 -7 -8 -8 -8 -8 -8 -8 -8 -8 -8 -8 -8 -7 -8 -8 -8 -8 -8 -8 -8 -7 -7 -7 -7 -7 -7 -7 -8 -8 -8 -8 -8 -8 -8 -7 -7 -7 -7 -7 -7 -6 -6 -6 -6 -6 -6 -5 -5 -5 -5 -4 -4 -4 -4 -4 -4 -4 -3 -3 -3 -3 -2 -2 -1
-7 -7 -7 -7 -7 -8 -8 -8 -8 -8 -8 -8 -8 -8 -8 -8 -8 -8 -8 -8 -8 -8 -8 -8 -8 -8 -8 -7 -7 -7 -8 -8 -8 -8 -8 -8 -8 -8 -8 -7 -7 -7 -7 -7 -7 -7 -7 -6 -6 -6 -6 -6 -5 -5 -5 -5 -5 -4 -4 -4 -4 -4 -4 -4 -3 -3 -3 -2 -2
-7 -7 -7 -7 -8 -8 -8 -8 -8 -8 -8 -8 -8 -8 -8 -8 -8 -8 -8 -8 -8 -8 -8 -8 -8 -8 -8 -8 -8 -8 -8 -8 -8 -8 -8 -8 -8 -8 -8 -7 -7 -7 -7 -7 -7 -7 -7 -7 -6 -6 -6 -6 -5 -5 -5 -5 -5 -5 -5 -4 -4 -4 -4 -4 -3 -3 -3 -2 -2
-7 -7 -8 -8 -8 -8 -8 -8 -9 -9 -9 -9 -8 -8 -8 -8 -8 -8 -8 -8 -8 -8 -8 -8 -8 -8 -8 -8 -8 -8 -8 -8 -8 -8 -8 -8 -8 -8 -7 -7 -7 -7 -7 -7 -7 -7 -7 -6 -6 -6 -6 -6 -6 -5 -5 -5 -5 -5 -5 -4 -4 -4 -4 -4 -4 -3 -3 -2 -2
-7 -8 -8 -8 -8 -8 -8 -9 -9 -9 -9 -9 -9 -9 -8 -8 -8 -9 -8 -8 -8 -8 -8 -8 -8 -8 -8 -8 -8 -8 -8 -8 -8 -8 -8 -8 -8 -8 -7 -7 -7 -7 -7 -7 -7 -7 -6 -6 -6 -6 -6 -6 -6 -5 -5 -5 -5 -5 -5 -5 -5 -4 -4 -4 -4 -3 -2 -2 -2
-8 -8 -8 -8 -8 -8 -8 -9 -9 -9 -9 -9 -9 -9 -9 -9 -9 -9 -9 -9 -8 -8 -8 -8 -8 -8 -8 -8 -8 -8 -8 -8 -8 -8 -8 -8 -8 -8 -7 -7 -7 -7 -7 -7 -7 -7 -6 -6 -6 -6 -6 -6 -6 -5 -5 -5 -5 -5 -5 -5 -5 -4 -4 -4 -3 -3 -2 -2 -2
-8 -8 -8 -8 -8 -8 -9 -9 -9 -9 -9 -9 -9 -9 -9 -9 -9 -9 -9 -9 -8 -8 -8 -8 -8 -8 -8 -8 -8 -8 -8 -8 -8 -8 -8 -8 -8 -8 -7 -7 -7 -7 -7 -7 -7 -7 -6 -6 -6 -6 -6 -6 -5 -5 -5 -5 -5 -5 -5 -5 -5 -4 -4 -4 -3 -3 -2 -2 -2
-8 -8 -8 -8 -8 -9 -9 -9 -9 -9 -9 -9 -9 -9 -9 -9 -9 -9 -9 -9 -8 -8 -8 -8 -8 -8 -8 -8 -8 -8 -8 -8 -8 -8 -8 -8 -8 -8 -7 -7 -7 -7 -7 -7 -7 -7 -6 -6 -6 -6 -6 -6 -5 -5 -5 -5 -5 -5 -5 -5 -5 -4 -4 -4 -3 -3 -2 -2 -2
-8 -8 -8 -8 -9 -9 -9 -9 -9 -9 -9 -9 -9 -9 -9 -9 -9 -9 -9 -9 -8 -8 -8 -8 -8 -8 -8 -8 -8 -8 -8 -8 -8 -8 -8 -8 -8 -7 -7 -7 -7 -7 -7 -7 -7 -7 -6 -6 -6 -6 -6 -6 -6 -5 -5 -5 -5 -5 -5 -5 -5 -4 -4 -4 -3 -2 -2 -3 -3
-8 -8 -9 -9 -9 -9 -9 -9 -9 -9 -9 -9 -9 -9 -9 -9 -9 -9 -9 -8 -8 -8 -8 -8 -8 -8 -8 -8 -8 -8 -8 -8 -8 -8 -8 -8 -8 -7 -7 -7 -7 -7 -7 -7 -7 -7 -6 -6 -6 -6 -6 -6 -6 -5 -5 -5 -5 -5 -4 -4 -4 -4 -4 -3 -3 -3 -3 -3 -3
-9 -9 -9 -9 -9 -9 -9 -9 -9 -9 -9 -9 -9 -9 -9 -9 -9 -9 -9 -9 -9 -8 -8 -8 -8 -8 -8 -8 -8 -8 -8 -8 -8 -8 -8 -8 -8 -7 -7 -7 -7 -7 -7 -7 -7 -6 -6 -6 -6 -6 -6 -6 -5 -5 -5 -4 -4 -4 -4 -4 -3 -3 -3 -3 -3 -3 -3 -3 -3
-9 -9 -9 -9 -9 -9 -9 -9 -9 -9 -9 -9 -9 -9 -9 -9 -9 -9 -9 -9 -9 -9 -8 -8 -8 -8 -8 -8 -8 -8 -8 -8 -8 -8 -8 -8 -8 -7 -7 -7 -7 -7 -7 -7 -6 -6 -6 -6 -6 -6 -6 -5 -5 -4 -4 -3 -3 -3 -3 -3 -3 -3 -3 -2 -2 -3 -3 -3 -3
-9 -9 -9 -9 -9 -9 -9 -10 -10 -10 -10 -9 -9 -9 -9 -9 -9 -9 -9 -9 -9 -9 -9 -8 -8 -8 -8 -8 -8 -8 -8 -8 -8 -8 -8 -8 -7 -7 -7 -7 -7 -7 -7 -6 -6 -6 -6 -6 -6 -5 -5 -5 -4 -3 -3 -3 -3 -3 -3 -3 -3 -2 -2 -2 -2 -2 -3 -3 -3
-9 -9 -9 -9 -10 -10 -10 -10 -10 -10 -10 -10 -10 -10 -10 -9 -9 -9 -9 -9 -9 -9 -9 -8 -8 -8 -8 -8 -8 -8 -8 -8 -8 -8 -7 -7 -7 -7 -7 -7 -7 -7 -7 -6 -6 -6 -6 -6 -5 -5 -5 -4 -3 -3 -2 -2 -2 -2 -2 -3 -3 -2 -2 -2 -2 -2 -3 -3 -3
-10 -10 -10 -10 -10 -10 -10 -10 -10 -10 -10 -10 -10 -10 -10 -10 -9 -9 -9 -9 -9 -9 -9 -9 -8 -8 -8 -8 -8 -8 -8 -8 -8 -8 -7 -7 -7 -7 -7 -7 -7 -7 -7 -6 -6 -6 -6 -6 -5 -5 -4 -3 -3 -2 -2 -2 -2 -2 -2 -2 -2 -2 -2 -2 -2 -2 -3 -3 -3
-10 -10 -10 -10 -10 -10 -10 -10 -10 -10 -10 -10 -10 -10 -10 -9 -9 -9 -9 -9 -9 -9 -9 -9 -9 -8 -8 -8 -8 -8 -8 -8 -8 -7 -7 -7 -7 -7 -7 -7 -7 -7 -7 -6 -6 -6 -6 -5 -5 -4 -3 -3 -3 -3 -3 -2 -2 -2 -2 -2 -2 -2 -2 -2 -2 -2 -3 -3 -3
-10 -10 -10 -10 -10 -10 -10 -10 -10 -10 -10 -10 -10 -9 -9 -9 -9 -9 -9 -9 -9 -9 -9 -9 -9 -9 -8 -8 -8 -8 -8 -8 -8 -8 -7 -7 -7 -7 -7 -7 -7 -7 -7 -6 -6 -6 -5 -5 -4 -4 -3 -3 -3 -3 -3 -3 -2 -2 -2 -2 -2 -2 -2 -2 -2 -2 -3 -3 -2
-10 -10 -10 -9 -10 -10 -10 -10 -10 -10 -9 -9 -9 -9 -9 -9 -9 -9 -9 -9 -9 -9 -9 -9 -9 -9 -8 -8 -8 -8 -8 -8 -8 -8 -8 -7 -7 -7 -7 -7 -7 -7 -7 -7 -6 -6 -5 -4 -4 -3 -3 -3 -3 -3 -3 -3 -2 -2 -2 -2 -2 -2 -2 -2 -2 -3 -3 -3 -2
-9 -9 -9 -9 -9 -9 -10 -9 -9 -9 -9 -9 -9 -9 -9 -9 -9 -9 -9 -9 -9 -9 -9 -9 -9 -9 -8 -8 -8 -8 -8 -8 -8 -8 -8 -8 -7 -7 -7 -7 -7 -7 -7 -7 -6 -5 -4 -4 -4 -3 -3 -3 -4 -4 -3 -3 -3 -2 -2 -2 -2 -2 -3 -3 -3 -3 -3 -2 -2
-9 -9 -9 -9 -9 -9 -9 -9 -9 -9 -9 -9 -9 -9 -9 -9 -9 -9 -9 -9 -9 -9 -9 -9 -9 -9 -8 -8 -8 -8 -8 -8 -8 -8 -8 -8 -8 -7 -7 -7 -7 -7 -7 -6 -6 -5 -4 -4 -3 -3 -3 -3 -4 -4 -4 -3 -3 -3 -2 -2 -3 -3 -3 -3 -3 -3 -3 -3 -2
-9 -9 -9 -9 -9 -9 -9 -9 -9 -9 -9 -9 -9 -9 -9 -9 -9 -9 -9 -9 -9 -9 -9 -9 -9 -9 -9 -9 -9 -8 -8 -8 -8 -8 -8 -8 -8 -8 -7 -7 -7 -7 -7 -6 -5 -5 -4 -4 -3 -3 -3 -3 -4 -4 -4 -4 -3 -3 -3 -3 -3 -3 -3 -3 -3 -3 -3 -3 -2
-9 -9 -9 -9 -9 -9 -9 -9 -9 -9 -9 -9 -9 -9 -9 -9 -9 -9 -9 -9 -9 -9 -9 -9 -9 -9 -9 -9 -9 -9 -9 -9 -9 -9 -8 -8 -8 -8 -8 -7 -7 -7 -6 -6 -5 -5 -4 -4 -3 -3 -3 -3 -3 -4 -4 -4 -3 -3 -3 -3 -3 -4 -4 -4 -4 -3 -3 -3 -2
-8 -8 -8 -9 -9 -9 -9 -9 -9 -9 -9 -9 -9 -9 -9 -9 -9 -9 -9 -9 -9 -9 -9 -9 -9 -9 -9 -9 -9 -9 -9 -9 -9 -9 -9 -8 -8 -8 -8 -7 -7 -7 -6 -6 -5 -4 -4 -4 -3 -3 -3 -3 -3 -4 -4 -4 -4 -3 -3 -3 -4 -4 -4 -4 -3 -3 -3 -3 -2
-8 -8 -8 -8 -8 -8 -8 -9 -9 -9 -9 -9 -9 -9 -9 -9 -9 -9 -9 -9 -9 -9 -9 -9 -9 -9 -9 -9 -9 -9 -9 -9 -9 -9 -9 -9 -8 -8 -8 -7 -7 -7 -6 -6 -5 -4 -4 -4 -3 -3 -3 -3 -3 -4 -4 -4 -4 -4 -4 -4 -4 -4 -4 -4 -3 -3 -3 -2 -2
-8 -8 -8 -8 -8 -8 -9 -9 -9 -9 -9 -9 -9 -9 -9 -9 -9 -9 -9 -9 -9 -9 -9 -9 -9 -9 -9 -9 -9 -9 -9 -9 -9 -9 -9 -9 -9 -8 -8 -8 -7 -7 -6 -6 -5 -5 -4 -4 -3 -3 -3 -3 -3 -4 -4 -4 -4 -4 -4 -4 -4 -4 -4 -4 -3 -3 -3 -3 -3
-8 -8 -8 -9 -9 -9 -9 -9 -9 -9 -9 -9 -9 -9 -9 -9 -9 -9 -9 -9 -9 -9 -9 -9 -9 -9 -9 -9 -9 -9 -9 -9 -9 -9 -9 -9 -9 -8 -8 -8 -7 -7 -6 -6 -5 -5 -4 -4 -4 -3 -3 -3 -4 -4 -4 -4 -4 -4 -4 -4 -4 -4 -4 -4 -4 -3 -3 -3 -3
-9 -9 -9 -9 -9 -9 -9 -9 -9 -9 -9 -9 -9 -9 -9 -9 -9 -9 -9 -9 -9 -9 -9 -9 -9 -9 -9 -9 -9 -9 -9 -9 -9 -9 -9 -9 -9 -8 -8 -8 -7 -7 -6 -6 -5 -5 -4 -4 -4 -3 -3 -3 -4 -4 -4 -4 -4 -4 -4 -4 -4 -4 -4 -4 -3 -3 -3 -3 -3
-9 -9 -9 -9 -9 -9 -9 -9 -9 -9 -9 -9 -9 -9 -9 -9 -9 -9 -9 -9 -8 -8 -8 -9 -9 -9 -9 -9 -9 -9 -9 -9 -9 -9 -9 -9 -9 -8 -8 -8 -8 -7 -6 -5 -5 -5 -4 -4 -4 -3 -3 -4 -4 -4 -4 -4 -4 -4 -4 -4 -4 -4 -4 -4 -4 -3 -3 -3 -3
-9 -9 -9 -9 -9 -9 -9 -9 -9 -9 -9 -9 -9 -9 -9 -9 -9 -9 -9 -8 -8 -8 -8 -8 -8 -8 -8 -8 -9 -9 -9 -9 -9 -9 -9 -9 -8 -8 -8 -8 -8 -7 -6 -6 -5 -5 -5 -4 -4 -3 -4 -4 -4 -4 -4 -4 -5 -5 -5 -5 -5 -5 -5 -4 -4 -3 -3 -3 -3
-9 -9 -9 -9 -9 -9 -9 -9 -9 -9 -9 -9 -9 -9 -9 -9 -8 -8 -8 -8 -8 -8 -8 -8 -8 -8 -8 -8 -8 -8 -9 -9 -9 -9 -8 -8 -8 -8 -8 -8 -7 -7 -6 -6 -5 -5 -5 -4 -4 -4 -4 -4 -4 -4 -4 -5 -5 -5 -5 -5 -5 -5 -5 -5 -4 -3 -3 -3 -3
-9 -9 -9 -9 -9 -9 -9 -9 -9 -9 -9 -9 -9 -9 -8 -8 -8 -8 -8 -8 -8 -8 -8 -8 -8 -8 -8 -8 -8 -8 -8 -8 -8 -8 -8 -8 -8 -8 -8 -8 -7 -7 -6 -6 -5 -5 -5 -4 -4 -4 -4 -5 -5 -5 -5 -5 -5 -5 -5 -5 -5 -5 -5 -5 -5 -4 -4 -4 -3
-9 -9 -9 -9 -9 -9 -9 -9 -9 -9 -9 -9 -8 -8 -8 -8 -8 -8 -8 -8 -8 -8 -8 -8 -8 -8 -8 -8 -8 -8 -8 -8 -8 -8 -8 -8 -8 -8 -8 -7 -7 -7 -6 -6 -5 -5 -5 -5 -4 -4 -5 -5 -5 -5 -5 -5 -5 -5 -6 -6 -6 -6 -5 -5 -5 -5 -5 -4 -4
-9 -9 -9 -9 -9 -9 -9 -9 -9 -8 -8 -8 -8 -8 -8 -8 -8 -8 -8 -8 -8 -8 -8 -8 -8 -8 -8 -8 -8 -8 -8 -8 -8 -8 -8 -8 -8 -8 -8 -7 -7 -7 -6 -6 -6 -6 -5 -5 -4 -4 -5 -5 -5 -5 -5 -5 -5 -6 -6 -6 -6 -6 -6 -6 -6 -5 -5 -5 -4
-9 -9 -9 -9 -9 -9 -8 -8 -8 -8 -8 -8 -8 -8 -8 -8 -8 -8 -8 -8 -8 -8 -8 -8 -8 -8 -8 -8 -8 -8 -8 -8 -8 -8 -8 -8 -8 -8 -7 -7 -7 -7 -6 -6 -6 -6 -5 -4 -4 -5 -5 -6 -6 -5 -5 -6 -6 -6 -6 -6 -6 -6 -6 -6 -6 -6 -6 -5 -5
-9 -9 -9 -9 -8 -8 -8 -8 -8 -8 -8 -8 -8 -8 -8 -8 -8 -8 -8 -8 -8 -8 -8 -8 -8 -8 -8 -8 -8 -8 -8 -8 -8 -8 -7 -7 -7 -7 -7 -7 -7 -7 -6 -6 -6 -6 -5 -4 -4 -5 -5 -6 -6 -6 -6 -6 -6 -6 -6 -6 -6 -6 -6 -6 -6 -6 -6 -6 -5
Height
885 883 882 881 880 878 877 875 874 873 871 870 868 866 865 863 862 860 859 857 856 854 852 851 849 847 846 844 843 842 840 839 837 836 835 833 832 830 829 827 825 824 822 821 819 818 816 815 813 811 810 808 806 805 804 802 801 800 798 796 795 793 791 790 789 788 787 786 785
884 883 882 881 880 878 877 875 874 873 871 870 868 866 865 864 862 860 859 857 856 854 852 850 849 847 845 844 843 841 840 838 836 835 834 832 831 830 828 826 825 823 822 820 819 817 815 814 812 811 809 807 805 804 803 801 800 798 797 795 794 792 791 789 788 787 786 784 783
884 883 882 880 879 878 876 875 874 872 871 869 868 866 865 864 862 860 859 857 855 854 852 850 848 847 845 844 842 841 840 838 836 835 833 831 830 829 827 826 824 823 821 820 818 816 815 813 812 810 808 806 805 803 802 800 799 797 796 794 793 792 790 789 787 786 785 783 782
884 883 881 880 879 878 876 875 873 872 870 869 867 866 865 863 862 860 859 857 855 854 852 850 848 846 845 843 842 840 839 837 836 834 832 831 830 828 826 825 823 822 820 819 817 815 814 813 811 809 807 806 804 802 801 799 798 796 795 794 792 791 789 788 786 785 784 782 781
884 883 881 880 879 878 876 875 873 872 870 869 867 865 864 863 861 860 858 856 855 853 852 850 848 846 845 843 841 840 838 837 835 834 832 830 829 827 826 824 823 821 819 818 816 815 813 812 810 808 806 805 803 801 800 798 797 795 794 793 791 790 789 787 785 784 783 781 779
883 882 881 880 879 877 876 875 873 871 870 868 867 865 864 863 861 860 858 856 855 853 851 850 848 846 844 843 841 839 837 836 835 833 831 830 828 826 825 823 822 820 819 817 815 814 812 811 809 807 805 804 802 800 799 797 796 794 793 792 790 789 788 786 784 783 781 779 778
883 882 881 880 878 877 875 874 872 871 870 868 866 865 864 862 861 859 858 856 854 852 850 849 847 846 844 842 840 839 837 835 834 832 831 829 827 826 824 823 821 820 818 816 815 813 812 810 808 806 805 803 801 799 798 796 795 794 792 790 789 788 786 785 783 782 780 778 777
883 882 880 879 878 876 875 874 872 870 869 868 866 865 863 862 860 859 857 855 854 852 850 849 847 845 844 842 840 839 837 835 833 832 830 829 827 825 824 822 820 819 817 815 814 812 811 809 807 805 804 802 800 798 797 795 794 793 791 789 788 786 785 783 782 780 779 777 776
882 881 880 879 878 876 875 873 872 870 869 867 866 865 863 862 860 859 857 855 854 852 850 848 847 845 843 842 840 838 836 835 833 831 830 828 826 825 823 821 819 818 816 815 813 811 810 808 806 804 803 801 799 797 795 794 793 791 790 788 786 784 783 782 780 779 777 776 774
882 881 880 878 877 876 874 873 871 870 869 867 866 864 863 862 860 858 857 855 853 851 850 848 846 845 843 841 840 838 836 835 833 831 829 827 826 824 822 820 819 817 815 814 812 810 809 807 805 803 801 800 798 796 794 793 791 790 788 787 785 783 781 780 779 777 776 775 774
882 880 879 878 877 875 874 872 871 870 868 867 865 864 862 861 860 858 856 855 853 851 849 848 846 844 842 841 839 838 836 834 832 830 829 827 825 824 822 820 818 817 815 813 811 810 807 805 803 801 799 798 796 794 792 791 789 788 786 785 783 782 780 778 777 776 775 774 772
881 880 879 878 876 875 874 872 871 869 868 866 865 864 862 860 859 857 855 854 852 850 849 847 846 844 842 840 839 837 835 834 832 830 828 826 825 823 821 820 818 816 814 812 811 809 806 804 802 800 797 795 794 792 790 789 787 786 784 783 781 780 778 777 775 774 774 772 771
881 880 879 877 876 875 873 872 870 869 867 866 865 863 861 860 858 857 855 853 852 850 848 846 845 844 842 840 838 837 835 833 831 830 828 826 824 822 820 819 817 815 814 812 810 808 805 803 801 798 796 794 791 790 788 787 785 784 782 781 779 778 777 775 774 773 773 771 770
881 880 879 877 876 875 873 872 870 869 867 865 864 863 861 859 858 856 855 853 851 850 848 846 845 843 841 840 838 836 835 833 831 829 827 825 824 822 820 818 816 815 813 811 809 807 805 802 800 797 794 791 789 787 786 785 784 782 781 779 778 777 775 774 773 773 772 770 769
880 880 878 877 876 874 873 871 870 868 867 865 864 862 860 859 857 856 854 852 851 849 847 845 844 842 841 839 838 836 834 832 830 828 826 825 823 821 820 818 816 814 812 810 807 805 803 801 798 795 793 789 787 784 783 782 781 780 779 778 776 775 774 773 773 772 771 769 768
880 879 878 877 875 874 873 871 870 868 866 865 863 862 860 859 857 855 854 852 850 848 847 845 843 841 840 838 837 835 833 831 830 828 826 824 822 820 819 817 815 813 811 808 806 803 801 799 796 794 791 788 785 782 780 779 778 777 776 776 775 774 773 772 772 771 770 769 767
880 879 878 876 875 873 872 870 869 868 866 864 863 861 860 858 856 855 853 852 850 848 846 844 843 841 839 837 836 835 833 831 829 827 825 823 822 820 818 816 815 812 810 808 805 802 800 797 794 792 789 786 783 780 778 777 776 775 774 774 774 773 772 772 771 770 769 768 767
880 878 877 876 874 873 871 870 869 867 865 864 862 861 859 858 856 854 853 851 849 847 845 844 842 840 839 837 835 834 832 830 828 826 825 823 821 820 818 816 814 812 810 807 805 802 799 795 793 789 787 784 781 778 776 775 774 774 773 773 773 772 772 771 771 770 769 767 766
879 878 876 875 874 872 871 869 868 866 865 863 862 860 859 857 855 854 852 850 849 847 845 843 841 840 838 836 834 833 831 830 828 826 824 822 821 819 817 815 813 811 809 806 804 801 798 795 791 788 785 781 779 777 776 775 774 773 773 772 772 772 771 771 770 769 768 767 765
879 877 876 874 873 871 870 869 867 866 864 863 861 860 858 856 855 853 851 849 848 846 844 842 840 839 837 835 833 832 830 829 827 825 824 822 820 819 817 815 813 810 808 805 803 800 797 794 791 788 784 780 778 777 776 775 774 773 773 772 772 771 771 770 769 768 767 766 765
878 877 875 874 872 871 869 868 866 865 863 862 860 859 857 855 854 852 850 849 847 845 844 842 840 838 836 834 832 831 829 828 826 825 823 821 819 818 816 814 812 810 807 805 802 799 796 794 791 787 784 781 779 777 776 775 774 774 773 772 771 771 770 770 769 768 766 765 764
878 876 875 873 872 870 869 867 866 864 862 861 859 858 856 855 853 851 850 848 846 845 843 841 839 837 835 833 831 830 828 827 826 824 822 820 819 817 815 814 811 809 806 804 801 798 795 793 790 788 785 782 779 778 776 775 774 774 772 772 771 771 770 769 768 767 766 765 764
877 875 874 873 871 870 868 866 865 863 861 860 858 857 855 854 852 850 849 847 846 844 842 840 838 836 835 833 831 829 828 826 825 823 821 820 818 816 815 813 811 808 806 803 800 798 795 792 790 788 786 783 780 778 777 775 774 774 773 772 771 770 769 769 767 766 765 764 763
876 875 873 872 870 869 867 865 864 862 861 859 858 856 855 853 851 850 848 847 845 843 841 840 838 836 834 832 830 829 827 826 824 822 820 819 817 815 814 812 810 808 805 803 800 798 795 793 790 788 786 783 781 779 777 775 774 774 773 772 771 770 769 768 767 766 764 763 762
875 874 872 871 869 868 866 865 863 861 860 859 857 855 854 852 851 849 847 846 844 842 841 839 837 835 833 831 830 828 827 825 824 822 820 818 816 815 813 811 810 808 805 803 801 798 796 793 791 788 785 783 780 779 777 775 774 774 773 772 771 770 769 768 766 765 764 762 761
874 873 871 870 869 867 865 864 863 861 860 858 856 855 853 852 850 849 847 845 843 842 840 838 836 835 833 831 830 828 826 825 823 822 820 818 816 814 812 811 809 807 805 803 800 798 795 793 790 788 785 782 780 778 777 775 774 774 773 772 771 770 769 767 766 764 763 762 760
873 872 870 869 868 866 865 864 862 861 859 858 856 854 853 851 850 848 846 845 843 841 840 838 836 834 833 831 829 828 826 825 823 821 820 818 816 814 812 810 809 807 805 803 800 798 795 792 790 787 784 782 780 779 777 776 774 774 773 772 771 770 769 768 766 764 763 761 760
873 871 870 868 867 866 865 863 862 860 859 857 855 854 852 851 849 848 846 844 843 841 839 837 836 834 833 831 829 827 826 824 822 821 819 818 816 814 812 810 808 806 805 803 800 797 794 792 789 787 784 782 780 779 777 776 775 774 773 772 771 770 769 767 766 764 763 761 760
872 871 869 868 867 865 864 863 861 860 858 857 855 854 852 850 849 847 846 844 842 840 839 837 835 834 832 831 829 827 825 824 822 820 819 817 815 813 811 810 808 806 804 802 800 798 795 792 789 787 784 782 781 779 778 776 775 774 774 773 772 770 769 767 766 764 763 762 761
872 871 870 868 867 865 864 863 861 860 858 856 855 854 852 850 849 847 845 844 842 840 839 837 835 834 832 830 829 827 825 823 822 820 819 817 815 813 811 809 807 805 804 802 800 798 795 792 789 787 784 783 782 780 778 777 775 775 774 773 772 770 769 767 766 765 764 762 761
872 871 870 868 867 865 864 863 861 860 858 856 855 853 852 850 849 847 845 844 842 840 839 837 835 834 832 830 828 826 825 823 821 820 818 816 815 813 811 809 807 805 804 802 800 797 795 792 789 787 785 784 782 780 779 777 776 775 774 773 772 770 769 768 767 765 764 763 762
872 871 870 868 867 865 864 862 861 859 858 856 855 853 852 850 849 847 845 844 842 840 838 836 835 833 831 829 827 826 824 823 821 820 818 816 814 812 810 809 807 805 804 802 800 797 795 792 790 787 785 784 783 781 779 778 777 776 774 773 772 771 769 768 767 766 765 764 764
872 871 870 868 866 865 864 862 861 859 858 856 855 853 852 850 848 847 845 843 841 840 838 836 835 833 831 829 827 825 824 823 821 819 817 816 814 812 810 809 807 805 804 802 799 797 795 793 790 788 786 784 783 781 780 779 778 776 775 774 772 771 769 768 767 766 766 765 764
872 870 869 868 866 865 864 862 861 859 858 856 855 853 852 850 848 846 845 843 841 840 838 836 835 833 831 829 827 826 824 822 821 819 817 815 814 812 810 809 807 805 804 801 799 797 795 793 790 788 786 784 783 781 780 779 778 777 775 774 772 771 769 768 767 767 767 766 766
872 870 869 868 866 865 863 862 860 859 858 856 855 853 851 850 848 846 845 843 841 840 838 836 834 832 830 829 827 825 824 822 820 819 817 815 814 812 810 809 807 805 804 801 799 797 795 793 790 788 786 784 783 782 781 780 779 778 776 774 773 771 769 768 768 768 768 768 767
872 870 869 868 866 865 863 862 860 859 857 856 854 853 851 849 848 846 845 843 841 839 837 835 834 832 830 828 826 825 824 822 820 819 817 815 814 812 810 808 806 805 803 801 799 797 795 793 791 789 786 785 784 783 782 781 780 779 777 775 774 772 770 769 769 769 769 769 768
872 871 869 868 866 865 863 862 860 859 857 856 854 852 851 849 847 846 845 843 841 839 837 835 833 831 830 828 826 825 824 822 821 819 817 815 814 812 810 808 807 805 803 801 799 797 795 793 791 789 788 786 785 784 784 783 781 780 779 777 776 774 773 771 770 769 769 769 768
872 871 870 868 866 865 863 862 860 859 857 856 854 852 851 849 848 846 845 843 841 839 837 835 833 831 830 828 826 825 824 822 821 819 817 815 814 812 810 809 807 805 803 801 799 797 795 794 791 790 789 788 786 785 785 784 783 782 780 779 778 777 775 774 772 771 769 769 769
873 871 870 868 867 865 864 862 860 859 857 856 854 852 851 849 848 846 845 843 841 840 837 835 833 831 830 828 826 825 823 822 820 819 817 815 814 812 811 809 807 805 804 801 800 797 795 793 792 791 790 789 788 787 786 785 784 783 782 781 780 779 778 776 775 774 772 771 770
873 871 870 869 867 865 864 862 860 859 858 856 854 852 851 849 848 846 845 843 841 839 837 835 833 831 830 828 826 825 823 821 820 818 817 815 814 813 811 810 808 806 804 802 800 798 796 794 793 791 790 790 789 788 787 786 785 785 784 783 782 781 780 779 778 776 775 773 772
873 871 870 869 867 865 864 862 860 859 857 856 854 853 851 850 848 846 845 843 841 839 837 835 833 831 830 828 826 824 822 821 819 818 817 815 814 813 812 810 809 807 805 802 800 799 797 795 794 792 791 791 790 789 788 788 787 786 785 784 784 783 782 781 780 779 777 776 774
Wind_Speed
20 20 20 19 19 19 20 19 19 19 20 21 21 22 22 22 22 21 21 22 22 23 24 24 24 25 26 27 28 28 28 29 29 29 28 27 26 26 26 26 26 26 26 26 26 26 25 25 25 24 23 22 22 21 21 21 21 22 23 24 24 25 24 23 22 22 22 23 23
20 20 20 19 19 20 20 20 20 20 21 21 21 21 21 21 21 22 22 23 23 24 25 25 25 26 27 28 28 28 29 29 29 29 28 27 26 25 25 25 25 26 26 26 26 25 25 25 25 24 23 22 21 22 22 22 22 23 23 24 24 24 23 21 21 22 23 23 23
20 20 20 20 21 21 21 20 21 22 22 22 22 21 21 21 21 21 22 23 24 25 25 25 26 26 27 27 28 28 29 29 29 29 28 26 26 25 25 25 26 26 26 26 26 25 25 26 25 24 22 21 22 22 22 23 23 23 23 23 23 23 22 22 22 22 23 23 23
20 20 21 21 21 21 21 21 22 23 23 22 22 21 21 21 21 22 23 24 25 25 25 25 26 26 26 27 28 29 29 29 29 28 27 26 26 26 26 26 26 26 26 26 26 26 26 26 25 23 22 22 23 23 23 23 23 22 22 22 22 22 22 22 22 22 22 23 23
20 20 20 21 21 21 21 21 22 23 23 22 22 22 22 22 22 23 24 25 25 25 25 26 26 25 26 27 29 29 29 29 28 27 26 26 26 26 26 26 26 26 26 26 26 26 26 26 24 23 22 22 23 23 23 23 23 23 23 23 23 22 22 22 22 22 23 24 23
21 21 21 21 21 21 21 22 23 23 23 22 22 22 23 23 23 24 25 25 25 26 26 25 25 25 27 28 29 29 29 28 27 26 26 26 26 26 26 27 26 26 26 26 26 26 26 26 24 23 22 22 22 23 23 23 23 23 23 24 23 23 22 22 23 23 24 24 24
21 21 21 21 21 21 22 23 23 24 23 23 23 23 24 24 25 25 26 25 25 25 25 25 25 26 28 29 29 29 28 28 27 27 26 26 27 27 27 27 27 26 26 26 26 26 26 25 24 23 23 22 21 22 23 23 24 24 25 25 25 23 23 23 23 24 25 25 24
20 21 21 21 21 22 22 23 24 24 24 23 23 24 24 25 25 25 26 25 25 25 25 25 26 28 29 29 29 28 28 27 27 27 27 27 27 27 27 27 27 27 26 26 26 26 26 25 24 23 22 22 22 22 24 25 26 27 27 27 26 25 24 24 25 26 26 26 24
21 21 21 21 21 22 23 24 24 24 24 24 24 24 24 25 25 25 25 25 25 25 26 26 27 28 29 29 28 27 27 27 27 27 27 28 28 28 28 27 27 27 27 26 26 27 26 25 24 23 23 22 23 24 26 27 28 28 27 26 25 25 25 26 27 28 28 26 24
21 21 22 22 22 22 23 24 24 24 24 24 24 24 24 24 25 25 25 25 26 26 27 27 28 29 29 28 27 27 26 27 27 27 28 28 28 28 28 27 27 27 27 27 27 27 27 26 25 25 25 25 26 27 28 28 28 27 27 26 26 26 28 28 29 28 27 24 22
22 22 22 22 22 23 23 24 24 24 23 23 24 24 25 25 25 25 25 26 26 27 27 28 28 28 28 28 27 26 26 27 27 27 28 28 28 28 28 27 28 28 28 28 28 27 27 27 27 28 28 28 28 28 28 28 27 27 27 27 28 28 29 29 29 27 24 22 21
22 22 22 22 23 23 24 24 24 24 23 23 24 24 25 25 25 26 26 26 26 27 27 28 28 28 28 27 27 27 27 27 28 28 28 28 28 28 28 28 28 28 29 29 28 28 28 28 29 30 31 31 30 29 28 28 28 28 28 28 29 29 29 29 29 26 23 21 21
22 22 22 23 23 23 24 24 24 23 23 24 24 24 25 25 25 25 25 26 26 27 27 28 28 27 27 27 27 27 27 27 28 28 28 28 28 28 28 28 29 29 29 29 29 29 29 30 31 32 33 33 32 31 29 29 28 28 28 28 28 29 30 30 28 25 22 20 21
22 22 23 23 24 24 24 24 24 23 23 24 24 25 25 25 25 25 25 25 26 27 27 27 27 27 27 27 27 27 27 27 28 28 28 28 28 28 28 28 29 30 30 30 30 31 31 32 32 33 34 34 34 33 32 30 29 28 27 28 28 29 30 29 26 23 20 20 20
23 23 23 24 24 24 24 24 24 23 24 24 25 25 25 25 25 24 25 25 26 27 27 27 27 28 28 28 28 27 27 27 28 28 28 28 28 28 28 29 30 31 31 32 32 32 33 33 34 34 35 36 36 35 34 32 30 29 28 28 28 29 29 27 23 20 19 20 20
23 23 24 24 25 25 25 25 24 24 24 24 25 25 25 25 25 25 25 26 26 27 27 28 28 29 29 28 28 28 27 27 28 28 28 28 29 29 29 29 30 31 32 33 34 34 35 35 35 36 36 37 38 37 36 34 31 29 27 26 26 26 26 23 19 18 19 20 20
24 24 24 25 25 25 26 25 25 24 24 25 26 26 25 25 26 26 26 26 27 27 28 29 29 29 29 29 29 28 28 28 28 28 29 29 29 30 30 30 31 31 32 33 34 35 36 37 37 38 38 39 39 39 36 33 28 25 22 20 20 21 20 18 17 18 19 20 20
24 25 25 25 26 26 26 26 26 25 25 26 26 26 26 26 27 27 27 28 28 28 29 30 30 29 29 30 30 29 28 28 28 29 29 30 30 30 30 31 31 32 33 33 34 35 36 38 39 39 40 40 40 37 32 26 21 17 14 13 13 14 15 14 16 18 19 20 21
25 25 26 26 26 26 26 26 26 26 26 26 27 27 27 27 28 28 29 29 29 29 30 30 30 30 30 30 30 30 29 28 29 29 29 30 30 30 30 31 31 32 33 34 34 35 36 38 39 40 41 41 37 30 22 17 13 11 9 8 10 11 12 14 16 18 19 20 21
25 26 26 26 27 27 27 26 26 26 27 27 27 27 28 28 29 29 30 30 30 30 30 31 31 31 31 31 31 31 30 29 28 29 29 30 30 30 30 30 31 32 33 34 34 35 37 38 39 40 41 39 31 22 16 14 12 10 9 9 10 11 12 14 16 18 20 21 21
25 26 26 27 27 27 27 27 27 27 27 27 28 28 28 28 29 29 30 30 30 30 31 31 31 32 32 32 31 31 30 29 28 29 29 30 30 30 30 30 31 32 33 34 34 35 36 37 38 39 39 35 26 19 15 15 14 13 12 11 11 12 12 14 16 18 20 21 20
25 26 26 27 27 27 27 27 27 27 27 27 28 28 28 28 29 29 29 30 30 30 31 31 31 32 32 32 31 30 29 29 29 29 30 31 31 31 30 30 31 32 33 33 34 35 36 37 36 37 35 32 26 21 17 17 17 16 15 14 13 12 13 14 17 19 20 20 19
26 26 27 27 27 27 27 27 28 27 27 27 28 28 28 29 29 29 29 29 30 30 30 31 31 31 32 31 30 29 28 28 29 30 31 31 31 31 31 31 31 31 32 32 33 34 35 36 36 35 34 30 27 23 20 18 17 17 17 16 14 14 14 16 19 20 20 19 18
27 27 28 27 28 28 28 28 28 27 27 28 28 28 28 29 29 29 29 30 30 30 31 31 31 31 31 30 28 27 27 28 29 30 31 32 32 32 31 31 30 30 30 30 31 32 34 35 35 35 34 30 28 25 22 18 17 17 17 16 14 15 16 18 20 21 21 19 17
28 29 29 29 28 28 28 28 27 27 27 28 28 28 28 29 29 29 29 30 30 31 31 31 31 30 29 28 27 27 27 28 29 30 31 31 32 32 32 31 30 29 29 29 30 32 33 34 35 36 34 30 28 27 24 20 18 17 16 15 15 16 18 20 22 22 21 19 18
30 30 30 29 29 28 27 27 27 27 27 28 28 28 29 29 29 29 29 30 30 30 30 30 29 28 27 26 26 27 28 29 29 29 30 31 31 32 31 30 29 29 29 29 31 32 33 33 34 35 35 32 29 27 25 22 18 16 15 14 15 17 19 21 23 23 21 19 18
30 30 30 29 28 27 27 27 27 27 27 28 28 28 28 29 28 29 29 29 29 29 29 28 27 26 26 25 26 28 29 29 29 29 29 30 31 31 31 30 29 30 30 30 31 31 32 32 33 34 34 33 30 28 26 23 19 16 15 15 17 19 20 21 22 22 21 20 19
30 29 29 28 27 27 27 27 27 28 28 28 27 27 28 28 28 28 28 28 29 28 27 26 26 26 26 26 27 28 29 29 29 29 29 29 30 30 30 29 29 29 29 29 30 30 31 31 32 33 34 33 30 28 26 23 19 16 15 17 19 21 22 22 22 21 21 20 19
29 28 27 27 26 26 27 27 27 27 27 27 27 27 27 28 28 28 28 28 28 27 26 25 26 26 26 27 27 27 28 28 28 28 28 29 29 30 29 29 29 29 29 28 28 29 29 30 31 32 33 32 29 27 26 24 19 16 16 18 21 22 23 23 22 21 20 19 17
27 27 26 26 27 27 27 27 27 27 27 26 27 27 27 27 28 28 27 28 27 27 26 26 26 27 27 27 27 27 27 27 27 27 28 28 29 29 29 29 29 29 28 28 27 27 28 29 30 32 33 31 28 27 26 25 20 18 17 19 22 23 24 24 22 20 18 17 18
27 26 26 27 27 27 27 27 27 26 26 26 26 27 27 26 27 27 27 27 27 26 26 27 27 27 28 28 27 26 26 26 27 27 27 28 28 28 29 29 29 28 28 27 26 26 27 28 29 31 32 29 26 25 25 24 21 19 19 21 22 23 24 23 21 18 16 18 20
27 27 27 27 27 27 27 27 26 26 26 26 26 26 26 26 27 27 27 27 26 26 27 27 27 28 28 28 27 27 26 26 26 26 26 27 27 28 28 28 28 27 26 26 26 26 26 27 29 30 30 28 26 24 24 22 20 20 20 22 23 24 24 23 20 16 17 21 23
27 27 27 27 27 27 26 26 26 26 26 26 26 26 26 27 27 27 27 27 26 26 26 27 27 27 27 27 26 26 26 25 25 26 26 27 27 27 27 27 27 26 25 25 25 25 25 26 28 29 29 28 25 23 22 21 20 20 22 23 24 25 25 24 20 17 19 21 23
27 27 27 27 27 26 26 26 26 26 26 26 26 26 26 27 27 27 27 27 26 26 26 26 26 26 26 26 25 25 25 24 25 26 27 27 27 26 26 26 26 26 25 24 24 25 25 26 27 28 28 27 24 21 20 20 20 21 23 24 26 27 27 26 20 19 21 22 23
27 27 27 27 27 26 26 26 26 26 26 26 27 27 27 27 27 27 27 26 26 26 27 27 27 27 26 26 25 25 24 24 26 27 27 26 26 26 26 26 26 25 24 24 24 24 25 25 27 28 27 24 21 20 19 20 20 22 24 25 27 29 29 27 21 20 22 23 23
27 27 26 26 26 26 26 26 26 26 26 27 27 27 27 27 27 27 26 26 26 27 27 27 27 27 27 27 26 25 24 24 25 26 26 26 25 26 26 26 26 25 23 23 23 24 25 26 27 28 26 22 21 20 20 20 20 22 24 26 27 30 30 28 24 21 23 24 24
26 26 26 26 26 26 26 26 26 26 26 27 27 27 27 27 27 26 26 25 26 27 27 27 28 28 28 28 26 25 24 24 25 25 25 25 25 25 26 26 25 24 22 22 23 24 26 27 28 28 25 22 21 20 20 20 21 22 23 25 26 29 30 29 27 26 26 27 27
26 26 26 26 26 26 26 26 26 26 26 27 27 27 27 26 26 26 25 25 26 26 27 28 28 28 28 28 27 25 24 24 24 24 25 25 25 25 25 24 24 23 22 22 23 25 26 27 28 27 23 20 20 20 20 20 21 21 22 23 24 26 28 28 28 29 30 30 29
26 26 26 26 26 26 26 26 26 26 26 27 27 27 26 26 25 25 25 25 26 26 27 28 29 29 29 29 27 26 25 24 24 24 24 24 25 24 24 23 22 22 22 23 24 26 27 27 29 26 22 19 20 20 20 19 20 20 21 21 22 23 25 26 26 28 30 31 29
26 25 25 25 25 25 26 26 26 26 26 26 26 26 26 25 25 25 26 26 26 27 27 28 29 30 30 29 28 27 25 24 23 24 24 23 24 23 22 21 21 22 23 24 25 26 27 28 29 27 23 19 20 21 20 19 19 20 20 20 20 21 22 23 24 26 27 29 28
25 25 25 25 25 25 25 25 25 25 26 26 25 25 25 25 25 26 26 26 26 27 27 28 29 30 30 29 27 26 25 24 23 23 23 22 22 21 20 20 21 23 25 26 26 26 27 28 29 28 25 20 21 22 21 20 19 19 19 19 19 19 20 21 22 24 25 26 26
Wind_Direction
341 341 340 339 338 336 335 333 332 332 331 330 329 327 326 326 325 324 324 325 325 324 324 323 322 322 323 324 325 327 327 328 329 329 329 329 329 328 328 327 327 326 325 323 323 322 321 321 320 318 315 313 311 311 310 310 310 309 308 306 305 305 304 304 304 307 309 308 306
339 339 339 338 337 336 334 333 331 331 330 329 327 326 325 325 324 324 324 324 324 323 323 322 322 322 322 323 325 327 327 328 328 329 329 329 329 328 328 327 326 325 324 323 323 322 320 320 319 317 315 313 312 311 310 310 310 308 307 308 308 309 309 308 309 309 309 307 304
338 338 338 337 337 336 335 333 331 330 329 328 327 325 325 324 324 323 323 323 323 323 322 322 322 322 323 324 325 326 327 328 328 328 329 329 328 328 327 326 325 325 324 323 322 320 319 319 318 316 314 313 311 309 308 307 307 307 307 310 312 313 312 310 309 308 307 304 302
337 337 337 337 336 335 334 332 330 329 328 327 326 325 324 324 324 323 323 323 323 323 323 322 322 322 323 324 325 326 327 327 328 328 328 328 327 327 327 326 326 325 324 323 321 320 319 319 318 316 313 312 310 307 305 306 306 307 308 311 312 312 310 308 307 306 304 302 300
336 336 336 335 334 333 332 331 329 328 327 326 325 324 324 324 324 324 324 324 324 323 323 323 322 323 323 324 325 326 326 327 328 328 328 327 327 326 326 326 325 324 323 322 321 320 320 319 318 315 313 311 308 306 305 304 304 306 308 310 311 310 308 306 305 303 302 300 297
335 334 334 334 333 332 331 330 329 328 326 325 324 323 324 324 324 325 325 324 323 323 323 323 324 324 324 325 325 326 327 327 328 328 327 326 326 326 325 325 325 324 322 322 321 321 320 320 317 314 312 310 307 304 304 304 306 307 309 310 309 308 307 305 303 302 300 298 295
332 332 332 332 331 331 330 329 328 327 326 325 324 323 323 324 324 325 325 324 324 324 324 324 324 324 325 325 326 326 327 327 327 327 327 326 326 325 325 324 324 324 323 322 322 321 320 319 316 314 311 309 307 306 306 306 307 308 308 308 308 307 306 305 303 302 299 297 296
331 331 331 330 330 329 329 329 328 328 327 325 324 324 324 324 325 325 325 325 325 325 324 324 323 324 325 325 326 326 326 326 326 326 326 326 325 325 324 324 324 323 323 323 322 321 320 318 315 312 309 308 307 306 306 307 307 307 306 306 306 306 305 304 304 302 300 297 298
331 330 330 330 329 329 328 328 329 328 327 325 324 324 325 325 325 326 326 325 325 324 324 323 323 324 325 326 326 326 326 326 325 325 325 325 325 325 324 324 324 323 323 323 322 321 319 317 313 311 309 307 306 305 305 305 305 305 305 304 304 305 305 304 304 303 300 298 300
330 330 329 329 329 328 328 329 329 328 327 326 325 325 326 325 325 325 325 324 324 323 323 323 324 325 326 326 326 326 325 325 325 325 324 324 325 325 324 324 323 323 323 323 322 321 319 317 313 311 309 306 304 303 303 303 303 303 302 302 303 303 304 305 305 304 301 300 303
329 329 329 328 328 328 329 329 329 329 328 327 326 326 326 326 325 325 324 324 323 323 323 324 325 326 326 326 326 326 325 324 324 323 323 324 324 325 324 324 324 324 323 323 322 321 319 316 313 310 309 306 305 303 302 301 301 300 300 300 300 302 303 305 306 304 302 303 307
328 328 328 328 328 328 329 329 329 329 328 327 327 327 326 326 325 325 324 324 324 323 324 325 325 326 326 326 326 325 324 324 323 323 323 323 323 324 324 324 324 324 324 323 323 321 318 316 313 311 310 308 306 303 301 299 299 298 297 298 299 301 302 304 305 305 305 309 312
328 328 328 328 328 329 329 329 329 328 328 327 327 327 326 325 325 325 324 324 324 323 323 324 325 325 326 326 325 325 324 323 323 322 322 322 322 323 324 325 325 325 324 324 322 320 318 315 314 312 310 308 306 303 301 299 297 296 295 296 297 299 301 303 304 306 310 315 315
328 328 328 329 329 329 329 329 329 328 327 327 327 326 326 325 325 325 324 324 324 323 323 323 324 325 325 325 325 324 323 323 322 321 321 321 322 323 324 324 324 324 324 323 322 320 318 315 314 312 310 308 306 304 302 300 297 294 293 293 294 297 299 301 303 308 314 318 318
328 329 329 329 330 329 329 329 328 327 326 326 325 325 325 324 324 324 323 323 323 323 322 322 323 324 324 325 325 324 324 323 322 321 321 321 322 323 323 323 324 324 324 323 322 320 318 317 315 313 311 309 307 306 304 302 298 295 292 292 294 296 298 299 304 312 319 321 320
328 329 330 330 330 329 329 328 327 326 325 324 324 324 324 323 323 323 323 323 322 322 321 322 322 322 324 325 325 325 324 323 322 322 321 321 322 323 323 323 324 324 323 322 321 320 319 318 316 314 311 310 309 308 306 304 301 297 295 295 297 297 298 300 309 318 322 322 320
328 329 330 330 329 328 328 327 326 325 324 323 323 323 323 322 322 322 322 322 321 321 320 321 321 321 322 323 324 325 325 324 323 322 321 321 321 322 323 323 323 323 323 322 321 320 319 319 318 315 313 311 311 309 308 308 305 303 301 302 303 301 301 305 316 322 323 323 321
328 329 329 329 328 327 327 326 325 324 323 323 322 322 322 322 321 321 320 320 320 320 320 320 320 321 321 322 323 324 325 324 323 322 321 321 321 322 322 323 323 323 322 321 321 319 319 318 318 317 315 314 313 313 314 315 315 313 312 313 310 305 304 310 319 324 325 325 324
327 327 327 327 327 326 326 325 324 323 322 322 322 321 321 321 320 320 320 320 320 320 320 320 320 320 320 321 322 323 324 324 323 323 322 321 322 322 323 323 323 323 323 322 320 319 319 319 319 319 318 317 317 320 326 334 336 335 332 324 312 305 305 312 321 326 328 329 329
325 325 325 326 325 325 325 324 323 322 322 322 321 321 321 321 321 321 321 321 321 320 320 320 319 319 319 319 320 321 323 323 324 323 323 323 323 323 324 324 323 323 322 321 320 320 320 321 321 321 322 323 326 335 348 354 353 346 334 319 308 306 309 317 325 330 332 334 335
324 324 324 324 324 324 323 323 322 321 321 321 321 321 322 322 322 322 322 322 321 321 320 320 319 318 318 318 319 320 322 323 324 324 323 323 323 324 325 325 324 324 323 322 321 321 321 322 322 324 329 336 343 351 356 352 346 339 330 322 319 319 322 327 330 332 335 337 339
322 323 323 323 323 323 322 322 322 321 321 321 321 322 323 323 323 322 322 322 322 322 321 320 319 318 317 317 317 319 321 323 324 324 324 324 324 325 326 326 326 325 324 323 322 323 323 322 323 329 338 349 355 356 352 347 343 341 340 340 341 340 338 335 333 334 337 340 341
322 322 322 322 322 322 322 322 322 322 322 322 323 323 324 324 324 323 323 324 324 323 322 322 320 319 318 317 317 319 321 323 324 325 326 326 326 327 328 328 327 326 325 324 323 323 323 324 326 334 345 356 359 358 353 349 347 347 349 353 354 350 342 337 335 337 340 342 342
322 322 322 322 323 323 323 323 323 323 324 324 324 324 325 325 325 325 325 325 325 325 324 323 322 321 320 319 319 321 323 324 325 326 326 327 328 329 329 329 329 327 326 324 324 324 324 326 328 336 347 358 0 359 356 354 352 352 354 356 354 348 340 336 338 340 343 344 342
322 323 323 323 324 324 324 324 324 324 324 325 326 326 326 326 326 326 326 326 326 326 326 325 325 324 322 322 322 323 324 325 326 326 327 328 329 330 330 330 329 328 326 324 324 325 326 328 330 338 349 359 0 359 357 357 356 356 356 356 352 345 340 338 340 343 345 345 342
323 324 324 325 325 324 324 324 325 325 325 326 326 327 327 327 327 327 327 327 327 327 327 327 327 326 326 326 325 326 326 326 326 327 327 328 329 330 330 329 329 328 327 325 326 327 328 330 332 339 349 360 1 358 356 356 357 357 356 354 350 345 342 340 339 342 344 345 342
324 324 325 326 326 325 325 326 326 327 327 327 327 327 328 328 329 329 329 328 328 329 329 329 329 329 330 328 328 327 326 326 326 327 328 328 329 329 329 329 328 328 328 327 328 329 330 332 333 339 348 359 0 357 354 353 355 356 356 354 351 347 342 338 337 339 342 343 342
325 326 327 327 327 326 327 328 329 329 329 329 329 328 329 330 331 331 331 331 331 331 331 330 331 331 331 330 328 327 326 326 326 327 328 328 328 328 328 328 329 329 329 329 330 331 331 333 334 339 347 357 359 356 353 352 353 355 356 355 352 347 343 339 339 341 343 343 345
329 330 330 330 329 329 330 330 331 331 331 331 331 331 332 333 334 333 333 332 333 332 332 331 332 332 331 329 328 327 326 326 326 326 327 328 328 328 328 329 329 329 330 330 332 332 333 334 335 339 347 356 357 355 352 352 353 355 356 355 352 349 345 344 346 348 349 348 356
334 334 334 333 333 333 333 333 333 333 333 333 334 334 335 335 336 335 334 333 332 332 331 331 331 330 330 328 327 327 326 326 326 326 326 327 327 327 328 329 329 330 330 331 333 334 334 335 336 340 348 354 355 354 352 353 354 355 355 354 352 350 349 349 351 355 359 4 16
339 338 337 336 335 335 335 335 336 336 336 336 336 337 337 337 337 337 335 334 332 332 332 332 331 330 329 329 328 327 326 326 327 327 326 326 326 326 327 328 329 329 330 332 334 335 336 336 336 341 348 354 355 353 352 353 354 353 353 352 351 351 351 351 352 360 15 27 33
340 339 338 337 337 337 337 337 338 338 338 338 338 338 338 337 337 337 336 334 333 333 333 333 332 331 330 330 329 328 328 328 328 327 326 325 325 326 327 328 328 329 330 333 335 336 337 337 338 342 348 353 352 352 353 354 354 353 352 351 351 351 351 350 354 12 35 43 42
341 340 339 338 338 338 338 339 339 339 339 338 338 338 338 337 337 337 336 336 335 335 334 334 333 332 331 330 329 329 329 329 329 328 327 326 325 326 327 327 328 329 331 334 336 337 338 338 340 344 348 351 351 353 357 358 358 356 355 354 354 354 353 353 4 30 49 48 46
342 341 340 339 339 339 339 340 340 339 339 339 338 338 337 337 336 336 336 337 336 336 335 335 334 332 331 330 330 330 330 330 329 329 328 327 326 326 326 326 327 330 333 335 336 337 338 340 343 346 349 351 354 359 4 4 3 2 1 360 360 358 357 359 16 44 57 53 48
342 341 341 340 340 340 340 340 340 340 339 339 338 337 337 336 336 336 336 336 337 337 336 336 335 334 332 331 331 331 331 331 331 330 329 328 328 327 327 328 329 332 335 336 336 336 338 341 345 349 354 359 6 11 12 9 8 7 7 6 6 4 4 7 23 49 62 59 53
342 341 340 340 340 340 340 340 340 340 339 338 337 336 336 335 336 336 336 337 337 337 336 336 335 334 333 332 331 332 332 332 332 331 330 330 330 329 329 330 333 335 337 337 336 336 338 344 350 358 6 15 20 20 17 14 13 13 13 12 12 11 11 12 21 38 53 57 56
342 342 341 340 340 340 340 340 340 339 338 337 336 335 335 335 335 336 337 338 337 337 336 335 334 334 333 332 331 331 332 333 332 331 331 331 331 331 331 332 335 337 338 337 336 335 340 350 359 8 17 27 27 24 20 18 18 17 16 16 16 16 16 16 19 24 32 42 50
342 342 341 340 340 340 339 339 339 338 337 336 335 335 334 335 336 337 338 338 337 336 334 333 333 332 332 331 331 330 331 332 332 331 330 331 332 333 333 334 337 340 340 338 336 336 342 355 7 16 25 32 29 24 21 21 21 21 19 18 18 19 20 21 21 21 24 29 35
342 342 341 340 340 339 339 339 339 338 337 335 334 334 335 336 337 337 337 337 336 334 333 332 331 331 331 331 331 330 330 330 330 330 330 331 333 334 336 338 340 342 341 340 337 339 346 360 11 21 31 36 32 27 24 23 23 22 21 20 19 19 21 22 23 23 24 26 26
341 341 341 340 339 339 339 338 338 337 336 335 334 335 336 337 337 337 336 336 335 333 332 330 330 330 331 332 332 331 330 329 330 331 331 332 334 337 341 343 344 345 344 342 340 344 352 3 11 21 33 42 37 31 28 26 24 23 22 21 20 20 20 21 22 23 24 25 24
341 341 340 340 339 339 338 337 336 336 336 335 335 336 336 337 336 336 336 334 333 332 331 329 329 331 332 334 334 334 334 333 333 335 337 337 339 343 348 350 349 347 346 343 342 348 357 4 10 19 31 45 41 35 31 28 26 23 21 20 21 21 21 20 21 21 22 22 22